This is the latest recevied weather packets stored in our database for station/object N4QEP-13. If no packets are shown the sender has not sent any weather packets the latest 1 day(s).
| Time | Temp. | Humidity | Pressure | Rain* | Wind** | Luminosity | Snow |
|---|---|---|---|---|---|---|---|
| 1778017563 | 25.56° C | 54% | 1014.6 hPa | 0 mm | 0.45 m/s, 146° | - | - |
| 1778016662 | 26.11° C | 51% | 1014.6 hPa | 0 mm | 0.45 m/s, 237° | - | - |
| 1778015756 | 26.11° C | 53% | 1014.6 hPa | 0 mm | 0 m/s | - | - |
| 1778014854 | 26.11° C | 54% | 1014.7 hPa | 0 mm | 0.45 m/s, 230° | - | - |
| 1778013953 | 26.67° C | 52% | 1014.7 hPa | 0 mm | 0.89 m/s, 41° | - | - |
| 1778013048 | 26.67° C | 54% | 1015.1 hPa | 0 mm | 0.45 m/s, 50° | - | - |
| 1778012148 | 26.67° C | 54% | 1015.1 hPa | 0 mm | 0.89 m/s, 230° | - | - |
| 1778011246 | 27.22° C | 52% | 1015.3 hPa | 0 mm | 0.45 m/s, 277° | - | - |
| 1778010346 | 27.22° C | 50% | 1015.2 hPa | 0 mm | 0.45 m/s, 82° | - | - |
| 1778009442 | 26.11° C | 53% | 1015.3 hPa | 0 mm | 0.45 m/s, 191° | - | - |
| 1778008548 | 26.11° C | 54% | 1015.5 hPa | 0 mm | 0.45 m/s, 58° | - | - |
| 1778007639 | 26.67° C | 54% | 1015.6 hPa | 0 mm | 0.45 m/s, 130° | - | - |
| 1778006737 | 26.11° C | 54% | 1015.8 hPa | 0 mm | 0.89 m/s, 139° | - | - |
| 1778005840 | 26.11° C | 55% | 1016 hPa | 0 mm | 0.45 m/s, 207° | - | - |
| 1778004936 | 26.11° C | 55% | 1016.2 hPa | 0 mm | 0 m/s | - | - |
| 1778004020 | 26.11° C | 54% | 1016 hPa | 0 mm | 0.45 m/s, 202° | - | - |
| 1778003106 | 26.11° C | 56% | 1016.1 hPa | 0 mm | 0.45 m/s, 205° | - | - |
| 1778002202 | 26.11° C | 55% | 1015.8 hPa | 0 mm | 0.89 m/s, 234° | - | - |
| 1778001301 | 26.67° C | 55% | 1016 hPa | 0 mm | 0.45 m/s, 125° | - | - |
| 1778000460 | 26.11° C | 55% | 1016.1 hPa | 0 mm | 0.89 m/s, 172° | - | - |
| 1777999559 | 26.67° C | 54% | 1016.1 hPa | 0 mm | 0.45 m/s, 247° | - | - |
| 1777998654 | 26.11° C | 55% | 1016.3 hPa | 0 mm | 0 m/s | - | - |
| 1777997755 | 25° C | 55% | 1016.5 hPa | 0 mm | 0 m/s | - | - |
| 1777996850 | 25° C | 54% | 1016.6 hPa | 0 mm | 0 m/s | - | - |
| 1777995972 | 25° C | 52% | 1016.6 hPa | 0 mm | 0.45 m/s, 217° | - | - |
* Rain latest hour (hover to see other rain measurements)
** Current wind speed in m/s (hover to see current wind gust speed)